Time,TemperatureF,DewpointF,PressureIn,WindDirection,WindDirectionDegrees,WindSpeedMPH,WindSpeedGustMPH,Humidity,HourlyPrecipIn,Conditions,Clouds,dailyrainin,SolarRadiationWatts/m^2,SoftwareType,DateUTC
2013-04-03 00:00:00,28.2,11.5,29.89,NW,317,5.0,13.0,49,0.00,,,0.00,0.00,VWS V14.00,2013-04-03 04:00:00,
2013-04-03 00:05:00,28.1,11.4,29.89,NW,313,7.0,13.0,49,0.00,,,0.00,0.00,VWS V14.00,2013-04-03 04:05:00,
2013-04-03 00:10:00,28.0,11.3,29.89,NW,323,8.0,11.0,49,0.00,,,0.00,0.00,VWS V14.00,2013-04-03 04:10:00,
2013-04-03 00:15:00,28.0,11.3,29.89,NW,307,5.0,12.0,49,0.00,,,0.00,0.00,VWS V14.00,2013-04-03 04:15:00,
2013-04-03 00:20:00,27.9,11.2,29.90,NW,317,5.0,10.0,49,0.00,,,0.00,0.00,VWS V14.00,2013-04-03 04:20:00,
2013-04-03 00:25:00,27.8,11.6,29.90,WNW,300,5.0,15.0,50,0.00,,,0.00,0.00,VWS V14.00,2013-04-03 04:25:00,
2013-04-03 00:30:00,27.7,11.0,29.90,NW,315,3.0,14.0,49,0.00,,,0.00,0.00,VWS V14.00,2013-04-03 04:30:00,
2013-04-03 00:35:00,27.6,10.9,29.90,NW,309,4.0,10.0,49,0.00,,,0.00,0.00,VWS V14.00,2013-04-03 04:35:00,
2013-04-03 00:40:00,27.5,10.9,29.90,NW,308,5.0,12.0,49,0.00,,,0.00,0.00,VWS V14.00,2013-04-03 04:40:00,
2013-04-03 00:45:00,27.4,11.2,29.89,NW,324,4.0,11.0,50,0.00,,,0.00,0.00,VWS V14.00,2013-04-03 04:45:00,
2013-04-03 00:50:00,27.3,11.1,29.89,NNW,327,2.0,7.0,50,0.00,,,0.00,0.00,VWS V14.00,2013-04-03 04:50:00,
2013-04-03 00:55:00,27.3,11.1,29.90,WNW,301,0.0,10.0,50,0.00,,,0.00,0.00,VWS V14.00,2013-04-03 04:55:00,
2013-04-03 01:00:00,27.1,10.9,29.90,NW,320,2.0,9.0,50,0.00,,,0.00,0.00,VWS V14.00,2013-04-03 05:00:00,
2013-04-03 01:05:00,27.0,10.9,29.90,NNW,337,6.0,6.0,50,0.00,,,0.00,0.00,VWS V14.00,2013-04-03 05:05:00,
2013-04-03 01:10:00,26.9,11.2,29.90,WNW,300,3.0,10.0,51,0.00,,,0.00,0.00,VWS V14.00,2013-04-03 05:10:00,
2013-04-03 01:15:00,26.8,11.1,29.90,NNW,329,0.0,8.0,51,0.00,,,0.00,0.00,VWS V14.00,2013-04-03 05:15:00,
2013-04-03 01:20:00,26.7,11.0,29.90,WNW,296,1.0,9.0,51,0.00,,,0.00,0.00,VWS V14.00,2013-04-03 05:20:00,
2013-04-03 01:25:00,26.6,10.9,29.90,NNW,327,0.0,9.0,51,0.00,,,0.00,0.00,VWS V14.00,2013-04-03 05:25:00,
2013-04-03 01:30:00,26.5,10.8,29.90,NW,319,0.0,9.0,51,0.00,,,0.00,0.00,VWS V14.00,2013-04-03 05:30:00,
2013-04-03 01:35:00,26.4,10.7,29.90,NNW,335,4.0,13.0,51,0.00,,,0.00,0.00,VWS V14.00,2013-04-03 05:35:00,
2013-04-03 01:40:00,26.4,10.7,29.90,NW,319,7.0,14.0,51,0.00,,,0.00,0.00,VWS V14.00,2013-04-03 05:40:00,
2013-04-03 01:45:00,26.3,11.1,29.90,NW,305,1.0,10.0,52,0.00,,,0.00,0.00,VWS V14.00,2013-04-03 05:45:00,
2013-04-03 01:50:00,26.2,10.6,29.90,NW,317,3.0,12.0,51,0.00,,,0.00,0.00,VWS V14.00,2013-04-03 05:50:00,
2013-04-03 01:55:00,26.2,11.0,29.90,NW,310,0.0,7.0,52,0.00,,,0.00,0.00,VWS V14.00,2013-04-03 05:55:00,
2013-04-03 02:00:00,26.1,10.9,29.91,WNW,292,7.0,11.0,52,0.00,,,0.00,0.00,VWS V14.00,2013-04-03 06:00:00,
2013-04-03 02:06:00,26.1,10.9,29.90,NW,319,2.0,10.0,52,0.00,,,0.00,0.00,VWS V14.00,2013-04-03 06:06:00,
2013-04-03 02:11:00,26.0,10.8,29.90,NNW,329,1.0,9.0,52,0.00,,,0.00,0.00,VWS V14.00,2013-04-03 06:11:00,
2013-04-03 02:16:00,25.9,10.7,29.90,NNW,329,0.0,2.0,52,0.00,,,0.00,0.00,VWS V14.00,2013-04-03 06:16:00,
2013-04-03 02:21:00,25.8,11.0,29.90,NNW,329,0.0,1.0,53,0.00,,,0.00,0.00,VWS V14.00,2013-04-03 06:21:00,
2013-04-03 02:26:00,25.7,11.4,29.90,NNW,329,0.0,1.0,54,0.00,,,0.00,0.00,VWS V14.00,2013-04-03 06:26:00,
2013-04-03 02:31:00,25.6,11.7,29.90,NNW,329,2.0,2.0,55,0.00,,,0.00,0.00,VWS V14.00,2013-04-03 06:31:00,
2013-04-03 02:36:00,25.4,12.3,29.89,NNW,329,0.0,3.0,57,0.00,,,0.00,0.00,VWS V14.00,2013-04-03 06:36:00,
2013-04-03 02:41:00,25.1,12.0,29.89,NNW,329,0.0,0.0,57,0.00,,,0.00,0.00,VWS V14.00,2013-04-03 06:41:00,
2013-04-03 02:46:00,24.8,11.7,29.89,West,266,2.0,4.0,57,0.00,,,0.00,0.00,VWS V14.00,2013-04-03 06:46:00,
2013-04-03 02:51:00,24.5,11.9,29.90,WSW,257,0.0,4.0,58,0.00,,,0.00,0.00,VWS V14.00,2013-04-03 06:51:00,
2013-04-03 02:56:00,24.3,12.1,29.90,WSW,250,1.0,2.0,59,0.00,,,0.00,0.00,VWS V14.00,2013-04-03 06:56:00,
2013-04-03 03:01:00,24.1,11.9,29.90,West,261,2.0,3.0,59,0.00,,,0.00,0.00,VWS V14.00,2013-04-03 07:01:00,
2013-04-03 03:06:00,23.9,12.1,29.89,West,261,0.0,2.0,60,0.00,,,0.00,0.00,VWS V14.00,2013-04-03 07:06:00,
2013-04-03 03:11:00,23.6,11.8,29.89,West,261,0.0,2.0,60,0.00,,,0.00,0.00,VWS V14.00,2013-04-03 07:11:00,
2013-04-03 03:16:00,23.5,11.7,29.89,WSW,252,0.0,0.0,60,0.00,,,0.00,0.00,VWS V14.00,2013-04-03 07:16:00,
2013-04-03 03:21:00,23.3,11.5,29.89,WSW,252,0.0,3.0,60,0.00,,,0.00,0.00,VWS V14.00,2013-04-03 07:21:00,
2013-04-03 03:26:00,23.2,11.4,29.89,WSW,250,3.0,3.0,60,0.00,,,0.00,0.00,VWS V14.00,2013-04-03 07:26:00,
2013-04-03 03:32:00,23.1,11.7,29.90,WSW,257,2.0,2.0,61,0.00,,,0.00,0.00,VWS V14.00,2013-04-03 07:32:00,
2013-04-03 03:37:00,23.0,11.9,29.90,WSW,241,2.0,5.0,62,0.00,,,0.00,0.00,VWS V14.00,2013-04-03 07:37:00,
2013-04-03 03:42:00,22.9,12.2,29.90,WSW,242,0.0,0.0,63,0.00,,,0.00,0.00,VWS V14.00,2013-04-03 07:42:00,
2013-04-03 03:47:00,22.8,12.1,29.90,WSW,242,1.0,2.0,63,0.00,,,0.00,0.00,VWS V14.00,2013-04-03 07:47:00,
2013-04-03 03:52:00,22.7,11.6,29.89,WSW,242,0.0,0.0,62,0.00,,,0.00,0.00,VWS V14.00,2013-04-03 07:52:00,
2013-04-03 03:57:00,22.7,12.0,29.89,WSW,242,0.0,0.0,63,0.00,,,0.00,0.00,VWS V14.00,2013-04-03 07:57:00,
2013-04-03 04:02:00,22.7,12.0,29.89,WSW,242,2.0,2.0,63,0.00,,,0.00,0.00,VWS V14.00,2013-04-03 08:02:00,
2013-04-03 04:07:00,22.6,12.3,29.89,WSW,242,0.0,2.0,64,0.00,,,0.00,0.00,VWS V14.00,2013-04-03 08:07:00,
2013-04-03 04:12:00,22.6,12.3,29.90,WSW,242,0.0,2.0,64,0.00,,,0.00,0.00,VWS V14.00,2013-04-03 08:12:00,
2013-04-03 04:17:00,22.5,12.2,29.90,WSW,242,0.0,0.0,64,0.00,,,0.00,0.00,VWS V14.00,2013-04-03 08:17:00,
2013-04-03 04:22:00,22.5,11.8,29.90,WSW,242,0.0,2.0,63,0.00,,,0.00,0.00,VWS V14.00,2013-04-03 08:22:00,
2013-04-03 04:27:00,22.4,11.7,29.90,WSW,242,1.0,1.0,63,0.00,,,0.00,0.00,VWS V14.00,2013-04-03 08:27:00,
2013-04-03 04:32:00,22.4,11.7,29.90,SW,230,0.0,2.0,63,0.00,,,0.00,0.00,VWS V14.00,2013-04-03 08:32:00,
2013-04-03 04:37:00,22.4,12.1,29.90,SW,231,2.0,2.0,64,0.00,,,0.00,0.00,VWS V14.00,2013-04-03 08:37:00,
2013-04-03 04:42:00,22.4,12.4,29.91,NW,312,0.0,4.0,65,0.00,,,0.00,0.00,VWS V14.00,2013-04-03 08:42:00,
2013-04-03 04:47:00,22.5,11.8,29.91,West,267,0.0,0.0,63,0.00,,,0.00,0.00,VWS V14.00,2013-04-03 08:47:00,
2013-04-03 04:52:00,22.6,11.9,29.91,West,267,0.0,2.0,63,0.00,,,0.00,0.00,VWS V14.00,2013-04-03 08:52:00,
2013-04-03 04:57:00,22.7,12.4,29.91,SW,221,0.0,1.0,64,0.00,,,0.00,0.00,VWS V14.00,2013-04-03 08:57:00,
2013-04-03 05:02:00,22.8,12.5,29.91,SW,226,1.0,1.0,64,0.00,,,0.00,0.00,VWS V14.00,2013-04-03 09:02:00,
2013-04-03 05:07:00,22.9,12.2,29.90,WNW,284,0.0,3.0,63,0.00,,,0.00,0.00,VWS V14.00,2013-04-03 09:07:00,
2013-04-03 05:12:00,23.0,12.3,29.91,NNW,331,0.0,3.0,63,0.00,,,0.00,0.00,VWS V14.00,2013-04-03 09:12:00,
2013-04-03 05:17:00,23.1,11.7,29.91,WNW,283,5.0,8.0,61,0.00,,,0.00,0.00,VWS V14.00,2013-04-03 09:17:00,
2013-04-03 05:22:00,23.5,11.3,29.92,NNW,346,5.0,10.0,59,0.00,,,0.00,0.00,VWS V14.00,2013-04-03 09:22:00,
2013-04-03 05:27:00,23.9,11.3,29.92,West,277,3.0,10.0,58,0.00,,,0.00,0.00,VWS V14.00,2013-04-03 09:27:00,
2013-04-03 05:33:00,24.3,11.3,29.92,NW,313,3.0,9.0,57,0.00,,,0.00,0.00,VWS V14.00,2013-04-03 09:33:00,
2013-04-03 05:38:00,24.5,11.5,29.92,WSW,258,3.0,7.0,57,0.00,,,0.00,0.00,VWS V14.00,2013-04-03 09:38:00,
2013-04-03 05:43:00,24.6,11.6,29.92,NW,320,0.0,7.0,57,0.00,,,0.00,0.00,VWS V14.00,2013-04-03 09:43:00,
2013-04-03 05:48:00,24.6,11.6,29.91,NW,316,0.0,7.0,57,0.00,,,0.00,0.00,VWS V14.00,2013-04-03 09:48:00,
2013-04-03 05:53:00,24.5,11.5,29.91,NW,317,5.0,8.0,57,0.00,,,0.00,0.00,VWS V14.00,2013-04-03 09:53:00,
2013-04-03 05:58:00,24.5,11.5,29.91,NW,309,1.0,11.0,57,0.00,,,0.00,0.00,VWS V14.00,2013-04-03 09:58:00,
2013-04-03 06:03:00,24.5,11.5,29.91,West,280,0.0,15.0,57,0.00,,,0.00,0.00,VWS V14.00,2013-04-03 10:03:00,
2013-04-03 06:08:00,24.6,11.6,29.91,NW,306,7.0,10.0,57,0.00,,,0.00,0.00,VWS V14.00,2013-04-03 10:08:00,
2013-04-03 06:13:00,24.6,11.2,29.92,WNW,287,3.0,10.0,56,0.00,,,0.00,0.00,VWS V14.00,2013-04-03 10:13:00,
2013-04-03 06:18:00,24.6,11.2,29.92,NW,312,0.0,3.0,56,0.00,,,0.00,0.00,VWS V14.00,2013-04-03 10:18:00,
2013-04-03 06:23:00,24.5,11.1,29.92,NW,315,0.0,11.0,56,0.00,,,0.00,0.00,VWS V14.00,2013-04-03 10:23:00,
2013-04-03 06:28:00,24.5,10.7,29.92,NW,304,0.0,10.0,55,0.00,,,0.00,5.00,VWS V14.00,2013-04-03 10:28:00,
2013-04-03 06:33:00,24.5,10.7,29.93,NW,324,0.0,12.0,55,0.00,,,0.00,11.00,VWS V14.00,2013-04-03 10:33:00,
2013-04-03 06:38:00,24.5,10.7,29.93,NNW,331,0.0,2.0,55,0.00,,,0.00,18.00,VWS V14.00,2013-04-03 10:38:00,
2013-04-03 06:43:00,24.4,11.0,29.93,SW,223,7.0,8.0,56,0.00,,,0.00,26.00,VWS V14.00,2013-04-03 10:43:00,
2013-04-03 06:48:00,24.4,11.0,29.93,South,190,2.0,3.0,56,0.00,,,0.00,35.00,VWS V14.00,2013-04-03 10:48:00,
2013-04-03 06:53:00,24.4,11.4,29.94,SW,222,5.0,6.0,57,0.00,,,0.00,44.00,VWS V14.00,2013-04-03 10:53:00,
2013-04-03 06:58:00,24.4,11.0,29.94,NW,316,2.0,12.0,56,0.00,,,0.00,51.00,VWS V14.00,2013-04-03 10:58:00,
2013-04-03 07:03:00,24.6,10.8,29.94,NW,304,4.0,13.0,55,0.00,,,0.00,58.00,VWS V14.00,2013-04-03 11:03:00,
2013-04-03 07:08:00,24.8,10.9,29.94,SSW,213,2.0,8.0,55,0.00,,,0.00,65.00,VWS V14.00,2013-04-03 11:08:00,
2013-04-03 07:13:00,25.0,12.3,29.94,SSW,194,0.0,3.0,58,0.00,,,0.00,77.00,VWS V14.00,2013-04-03 11:13:00,
2013-04-03 07:18:00,25.1,12.0,29.95,SSW,194,0.0,2.0,57,0.00,,,0.00,91.00,VWS V14.00,2013-04-03 11:18:00,
2013-04-03 07:23:00,25.2,12.5,29.95,SSW,194,0.0,3.0,58,0.00,,,0.00,91.00,VWS V14.00,2013-04-03 11:23:00,
2013-04-03 07:28:00,25.4,12.3,29.95,SSW,194,1.0,3.0,57,0.00,,,0.00,100.00,VWS V14.00,2013-04-03 11:28:00,
2013-04-03 07:33:00,25.6,12.5,29.95,SSW,193,0.0,4.0,57,0.00,,,0.00,116.00,VWS V14.00,2013-04-03 11:33:00,
2013-04-03 07:38:00,25.8,12.3,29.95,SSW,193,0.0,5.0,56,0.00,,,0.00,118.00,VWS V14.00,2013-04-03 11:38:00,
2013-04-03 07:43:00,26.0,12.5,29.96,South,190,0.0,0.0,56,0.00,,,0.00,142.00,VWS V14.00,2013-04-03 11:43:00,
2013-04-03 07:48:00,26.3,11.9,29.96,South,190,0.0,2.0,54,0.00,,,0.00,158.00,VWS V14.00,2013-04-03 11:48:00,
2013-04-03 07:53:00,26.6,11.8,29.96,WNW,290,2.0,5.0,53,0.00,,,0.00,225.00,VWS V14.00,2013-04-03 11:53:00,
2013-04-03 07:58:00,26.9,11.6,29.96,NW,320,4.0,8.0,52,0.00,,,0.00,230.00,VWS V14.00,2013-04-03 11:58:00,
2013-04-03 08:03:00,27.2,11.9,29.96,NNW,327,6.0,6.0,52,0.00,,,0.00,274.00,VWS V14.00,2013-04-03 12:03:00,
2013-04-03 08:08:00,27.6,11.9,29.97,NNW,333,2.0,4.0,51,0.00,,,0.00,294.00,VWS V14.00,2013-04-03 12:08:00,
2013-04-03 08:13:00,27.9,11.7,29.96,NW,318,1.0,7.0,50,0.00,,,0.00,308.00,VWS V14.00,2013-04-03 12:13:00,
2013-04-03 08:18:00,28.1,11.9,29.96,NW,323,2.0,6.0,50,0.00,,,0.00,366.00,VWS V14.00,2013-04-03 12:18:00,
2013-04-03 08:23:00,28.4,11.7,29.96,West,276,1.0,3.0,49,0.00,,,0.00,378.00,VWS V14.00,2013-04-03 12:23:00,
2013-04-03 08:28:00,28.8,12.1,29.96,NW,313,6.0,10.0,49,0.00,,,0.00,380.00,VWS V14.00,2013-04-03 12:28:00,
2013-04-03 08:33:00,29.1,11.9,29.96,NW,321,3.0,6.0,48,0.00,,,0.00,383.00,VWS V14.00,2013-04-03 12:33:00,
2013-04-03 08:38:00,29.4,11.7,29.96,WNW,285,6.0,8.0,47,0.00,,,0.00,394.00,VWS V14.00,2013-04-03 12:38:00,
2013-04-03 08:43:00,29.7,11.9,29.96,WNW,294,3.0,9.0,47,0.00,,,0.00,415.00,VWS V14.00,2013-04-03 12:43:00,
2013-04-03 08:48:00,30.1,12.3,29.96,NW,311,3.0,7.0,47,0.00,,,0.00,439.00,VWS V14.00,2013-04-03 12:48:00,
2013-04-03 08:53:00,30.3,12.0,29.96,WSW,242,3.0,8.0,46,0.00,,,0.00,489.00,VWS V14.00,2013-04-03 12:53:00,
2013-04-03 08:59:00,30.5,12.2,29.96,West,273,1.0,5.0,46,0.00,,,0.00,536.00,VWS V14.00,2013-04-03 12:59:00,
2013-04-03 09:04:00,30.9,12.6,29.96,NW,316,1.0,4.0,46,0.00,,,0.00,557.00,VWS V14.00,2013-04-03 13:04:00,
2013-04-03 09:09:00,31.3,11.4,29.96,West,277,1.0,5.0,43,0.00,,,0.00,610.00,VWS V14.00,2013-04-03 13:09:00,
2013-04-03 09:14:00,31.7,11.8,29.96,ENE,66,3.0,10.0,43,0.00,,,0.00,561.00,VWS V14.00,2013-04-03 13:14:00,
2013-04-03 09:19:00,31.8,9.7,29.96,NW,306,4.0,14.0,39,0.00,,,0.00,512.00,VWS V14.00,2013-04-03 13:19:00,
2013-04-03 09:24:00,31.5,10.0,29.95,NW,319,8.0,11.0,40,0.00,,,0.00,473.00,VWS V14.00,2013-04-03 13:24:00,
2013-04-03 09:29:00,31.3,8.6,29.96,North,355,7.0,12.0,38,0.00,,,0.00,383.00,VWS V14.00,2013-04-03 13:29:00,
2013-04-03 09:34:00,31.2,9.7,29.96,WSW,257,1.0,4.0,40,0.00,,,0.00,371.00,VWS V14.00,2013-04-03 13:34:00,
2013-04-03 09:39:00,31.2,10.2,29.96,North,360,2.0,9.0,41,0.00,,,0.00,299.00,VWS V14.00,2013-04-03 13:39:00,
2013-04-03 09:44:00,31.0,8.4,29.96,WNW,294,1.0,14.0,38,0.00,,,0.00,353.00,VWS V14.00,2013-04-03 13:44:00,
2013-04-03 09:49:00,30.8,9.3,29.96,NW,312,1.0,9.0,40,0.00,,,0.00,399.00,VWS V14.00,2013-04-03 13:49:00,
2013-04-03 09:54:00,30.8,9.3,29.96,NW,315,2.0,4.0,40,0.00,,,0.00,352.00,VWS V14.00,2013-04-03 13:54:00,
2013-04-03 09:59:00,30.8,9.9,29.96,WSW,254,5.0,12.0,41,0.00,,,0.00,371.00,VWS V14.00,2013-04-03 13:59:00,
2013-04-03 10:04:00,30.9,8.9,29.96,NW,308,0.0,5.0,39,0.00,,,0.00,327.00,VWS V14.00,2013-04-03 14:04:00,
2013-04-03 10:09:00,31.0,9.0,29.96,NW,308,7.0,11.0,39,0.00,,,0.00,318.00,VWS V14.00,2013-04-03 14:09:00,
2013-04-03 10:14:00,30.7,8.7,29.96,West,274,3.0,5.0,39,0.00,,,0.00,311.00,VWS V14.00,2013-04-03 14:14:00,
2013-04-03 10:19:00,30.7,9.2,29.96,WSW,246,4.0,7.0,40,0.00,,,0.00,330.00,VWS V14.00,2013-04-03 14:19:00,
2013-04-03 10:24:00,30.7,8.1,29.97,WNW,287,0.0,10.0,38,0.00,,,0.00,338.00,VWS V14.00,2013-04-03 14:24:00,
2013-04-03 10:29:00,30.7,8.1,29.96,West,263,6.0,6.0,38,0.00,,,0.00,357.00,VWS V14.00,2013-04-03 14:29:00,
2013-04-03 10:34:00,30.9,8.3,29.97,NNW,327,7.0,9.0,38,0.00,,,0.00,373.00,VWS V14.00,2013-04-03 14:34:00,
2013-04-03 10:39:00,31.0,9.0,29.97,NW,309,8.0,8.0,39,0.00,,,0.00,403.00,VWS V14.00,2013-04-03 14:39:00,
2013-04-03 10:44:00,31.0,9.0,29.97,WNW,302,2.0,13.0,39,0.00,,,0.00,431.00,VWS V14.00,2013-04-03 14:44:00,
2013-04-03 10:49:00,31.1,9.6,29.97,NW,307,3.0,11.0,40,0.00,,,0.00,406.00,VWS V14.00,2013-04-03 14:49:00,
2013-04-03 10:54:00,31.4,8.7,29.97,NW,309,7.0,15.0,38,0.00,,,0.00,388.00,VWS V14.00,2013-04-03 14:54:00,
2013-04-03 10:59:00,31.4,8.1,29.97,NW,304,4.0,11.0,37,0.00,,,0.00,383.00,VWS V14.00,2013-04-03 14:59:00,
2013-04-03 11:04:00,31.4,8.7,29.97,NNW,339,3.0,9.0,38,0.00,,,0.00,404.00,VWS V14.00,2013-04-03 15:04:00,
2013-04-03 11:09:00,31.6,9.5,29.97,NW,319,4.0,7.0,39,0.00,,,0.00,406.00,VWS V14.00,2013-04-03 15:09:00,
2013-04-03 11:14:00,31.9,8.6,29.97,NW,321,6.0,9.0,37,0.00,,,0.00,396.00,VWS V14.00,2013-04-03 15:14:00,
2013-04-03 11:19:00,31.9,8.0,29.97,WSW,243,0.0,10.0,36,0.00,,,0.00,390.00,VWS V14.00,2013-04-03 15:19:00,
2013-04-03 11:24:00,32.1,8.8,29.97,West,273,1.0,10.0,37,0.00,,,0.00,396.00,VWS V14.00,2013-04-03 15:24:00,
2013-04-03 11:29:00,32.3,9.0,29.97,West,277,4.0,6.0,37,0.00,,,0.00,408.00,VWS V14.00,2013-04-03 15:29:00,
2013-04-03 11:34:00,32.6,8.6,29.97,NNW,331,7.0,8.0,36,0.00,,,0.00,446.00,VWS V14.00,2013-04-03 15:34:00,
2013-04-03 11:39:00,32.9,8.3,29.97,West,269,0.0,11.0,35,0.00,,,0.00,534.00,VWS V14.00,2013-04-03 15:39:00,
2013-04-03 11:44:00,33.2,9.1,29.97,West,271,4.0,6.0,36,0.00,,,0.00,654.00,VWS V14.00,2013-04-03 15:44:00,
2013-04-03 11:49:00,33.9,9.1,29.97,NW,317,2.0,10.0,35,0.00,,,0.00,626.00,VWS V14.00,2013-04-03 15:49:00,
2013-04-03 11:54:00,34.4,8.9,29.96,NNW,336,10.0,10.0,34,0.00,,,0.00,666.00,VWS V14.00,2013-04-03 15:54:00,
2013-04-03 11:59:00,34.9,8.7,29.96,West,265,6.0,17.0,33,0.00,,,0.00,782.00,VWS V14.00,2013-04-03 15:59:00,
2013-04-03 12:04:00,35.5,11.2,29.97,NW,311,5.0,14.0,36,0.00,,,0.00,810.00,VWS V14.00,2013-04-03 16:04:00,
2013-04-03 12:09:00,35.7,10.1,29.96,NW,325,9.0,16.0,34,0.00,,,0.00,548.00,VWS V14.00,2013-04-03 16:09:00,
2013-04-03 12:14:00,35.4,9.2,29.96,NNW,336,5.0,16.0,33,0.00,,,0.00,424.00,VWS V14.00,2013-04-03 16:14:00,
2013-04-03 12:19:00,35.5,9.9,29.96,WNW,301,3.0,13.0,34,0.00,,,0.00,619.00,VWS V14.00,2013-04-03 16:19:00,
2013-04-03 12:24:00,36.0,12.9,29.96,West,279,6.0,11.0,38,0.00,,,0.00,707.00,VWS V14.00,2013-04-03 16:24:00,
2013-04-03 12:29:00,36.6,10.2,29.96,NW,324,9.0,15.0,33,0.00,,,0.00,786.00,VWS V14.00,2013-04-03 16:29:00,
2013-04-03 12:34:00,36.7,9.6,29.96,NW,311,5.0,18.0,32,0.00,,,0.00,786.00,VWS V14.00,2013-04-03 16:34:00,
2013-04-03 12:39:00,36.5,9.5,29.96,NW,306,1.0,14.0,32,0.00,,,0.00,703.00,VWS V14.00,2013-04-03 16:39:00,
2013-04-03 12:44:00,36.6,8.8,29.96,WNW,291,10.0,15.0,31,0.00,,,0.00,909.00,VWS V14.00,2013-04-03 16:44:00,
2013-04-03 12:49:00,37.0,9.2,29.95,NNW,341,15.0,15.0,31,0.00,,,0.00,889.00,VWS V14.00,2013-04-03 16:49:00,
2013-04-03 12:54:00,37.3,9.4,29.95,NW,305,4.0,15.0,31,0.00,,,0.00,882.00,VWS V14.00,2013-04-03 16:54:00,
2013-04-03 12:59:00,37.6,10.4,29.95,NW,319,3.0,15.0,32,0.00,,,0.00,805.00,VWS V14.00,2013-04-03 16:59:00,
2013-04-03 13:04:00,38.1,10.2,29.96,WNW,300,8.0,12.0,31,0.00,,,0.00,893.00,VWS V14.00,2013-04-03 17:04:00,
2013-04-03 13:09:00,38.5,10.5,29.96,NNW,345,7.0,10.0,31,0.00,,,0.00,819.00,VWS V14.00,2013-04-03 17:09:00,
2013-04-03 13:14:00,38.8,10.0,29.96,NNW,333,8.0,14.0,30,0.00,,,0.00,605.00,VWS V14.00,2013-04-03 17:14:00,
2013-04-03 13:19:00,38.6,9.9,29.96,NNW,336,12.0,14.0,30,0.00,,,0.00,809.00,VWS V14.00,2013-04-03 17:19:00,
2013-04-03 13:24:00,38.3,9.6,29.96,WNW,302,5.0,14.0,30,0.00,,,0.00,468.00,VWS V14.00,2013-04-03 17:24:00,
2013-04-03 13:29:00,37.8,8.4,29.96,NW,324,3.0,9.0,29,0.00,,,0.00,786.00,VWS V14.00,2013-04-03 17:29:00,
2013-04-03 13:35:00,38.2,11.6,29.96,WSW,257,3.0,9.0,33,0.00,,,0.00,791.00,VWS V14.00,2013-04-03 17:35:00,
2013-04-03 13:40:00,38.8,10.8,29.96,WSW,238,3.0,10.0,31,0.00,,,0.00,793.00,VWS V14.00,2013-04-03 17:40:00,
2013-04-03 13:45:00,39.6,10.7,29.96,SW,228,0.0,7.0,30,0.00,,,0.00,853.00,VWS V14.00,2013-04-03 17:45:00,
2013-04-03 13:50:00,40.2,10.5,29.96,West,272,3.0,17.0,29,0.00,,,0.00,846.00,VWS V14.00,2013-04-03 17:50:00,
2013-04-03 13:55:00,39.8,7.7,29.96,NNW,327,12.0,26.0,26,0.00,,,0.00,847.00,VWS V14.00,2013-04-03 17:55:00,
2013-04-03 14:00:00,39.4,10.6,29.96,NNE,20,12.0,27.0,30,0.00,,,0.00,842.00,VWS V14.00,2013-04-03 18:00:00,
2013-04-03 14:05:00,39.6,11.5,29.96,NNE,19,10.0,20.0,31,0.00,,,0.00,837.00,VWS V14.00,2013-04-03 18:05:00,
2013-04-03 14:10:00,39.8,9.4,29.96,NW,319,11.0,14.0,28,0.00,,,0.00,830.00,VWS V14.00,2013-04-03 18:10:00,
2013-04-03 14:15:00,40.1,10.4,29.96,NNW,335,2.0,13.0,29,0.00,,,0.00,826.00,VWS V14.00,2013-04-03 18:15:00,
2013-04-03 14:20:00,40.5,12.3,29.96,NW,322,7.0,10.0,31,0.00,,,0.00,816.00,VWS V14.00,2013-04-03 18:20:00,
2013-04-03 14:25:00,41.1,11.3,29.96,North,360,2.0,13.0,29,0.00,,,0.00,812.00,VWS V14.00,2013-04-03 18:25:00,
2013-04-03 14:30:00,41.0,10.4,29.96,NNE,25,10.0,20.0,28,0.00,,,0.00,809.00,VWS V14.00,2013-04-03 18:30:00,
2013-04-03 14:35:00,40.7,9.3,29.96,WNW,288,5.0,16.0,27,0.00,,,0.00,800.00,VWS V14.00,2013-04-03 18:35:00,
2013-04-03 14:40:00,40.8,11.0,29.96,NW,319,17.0,17.0,29,0.00,,,0.00,793.00,VWS V14.00,2013-04-03 18:40:00,
2013-04-03 14:45:00,41.0,10.4,29.97,NNW,338,8.0,17.0,28,0.00,,,0.00,784.00,VWS V14.00,2013-04-03 18:45:00,
2013-04-03 14:50:00,40.7,10.1,29.97,NNW,334,5.0,18.0,28,0.00,,,0.00,773.00,VWS V14.00,2013-04-03 18:50:00,
2013-04-03 14:55:00,40.7,9.3,29.97,NW,322,10.0,12.0,27,0.00,,,0.00,766.00,VWS V14.00,2013-04-03 18:55:00,
2013-04-03 15:00:00,40.5,10.8,29.96,NNW,335,18.0,18.0,29,0.00,,,0.00,758.00,VWS V14.00,2013-04-03 19:00:00,
2013-04-03 15:05:00,40.4,10.7,29.97,NNW,348,4.0,16.0,29,0.00,,,0.00,747.00,VWS V14.00,2013-04-03 19:05:00,
2013-04-03 15:11:00,40.6,12.4,29.96,NW,319,12.0,18.0,31,0.00,,,0.00,740.00,VWS V14.00,2013-04-03 19:11:00,
2013-04-03 15:16:00,40.6,10.9,29.97,NNW,329,7.0,14.0,29,0.00,,,0.00,729.00,VWS V14.00,2013-04-03 19:16:00,
2013-04-03 15:21:00,40.6,10.1,29.98,NW,325,14.0,14.0,28,0.00,,,0.00,719.00,VWS V14.00,2013-04-03 19:21:00,
2013-04-03 15:26:00,40.1,10.4,29.98,NW,323,8.0,18.0,29,0.00,,,0.00,708.00,VWS V14.00,2013-04-03 19:26:00,
2013-04-03 15:31:00,39.9,11.0,29.98,North,355,5.0,14.0,30,0.00,,,0.00,696.00,VWS V14.00,2013-04-03 19:31:00,
2013-04-03 15:36:00,39.9,11.0,29.97,NW,324,4.0,12.0,30,0.00,,,0.00,684.00,VWS V14.00,2013-04-03 19:36:00,
2013-04-03 15:41:00,40.0,11.1,29.97,West,263,1.0,16.0,30,0.00,,,0.00,675.00,VWS V14.00,2013-04-03 19:41:00,
2013-04-03 15:46:00,40.2,10.5,29.98,West,273,5.0,12.0,29,0.00,,,0.00,661.00,VWS V14.00,2013-04-03 19:46:00,
2013-04-03 15:51:00,40.6,10.9,29.98,WNW,292,4.0,14.0,29,0.00,,,0.00,649.00,VWS V14.00,2013-04-03 19:51:00,
2013-04-03 15:56:00,40.6,10.9,29.98,North,349,14.0,17.0,29,0.00,,,0.00,636.00,VWS V14.00,2013-04-03 19:56:00,
2013-04-03 16:01:00,40.3,10.6,29.97,West,271,7.0,8.0,29,0.00,,,0.00,622.00,VWS V14.00,2013-04-03 20:01:00,
2013-04-03 16:06:00,40.1,10.4,29.98,WSW,258,4.0,13.0,29,0.00,,,0.00,612.00,VWS V14.00,2013-04-03 20:06:00,
2013-04-03 16:11:00,39.5,9.1,29.98,North,349,10.0,10.0,28,0.00,,,0.00,596.00,VWS V14.00,2013-04-03 20:11:00,
2013-04-03 16:16:00,39.4,10.6,29.98,NNW,329,6.0,6.0,30,0.00,,,0.00,580.00,VWS V14.00,2013-04-03 20:16:00,
2013-04-03 16:21:00,39.5,9.9,29.98,WNW,297,3.0,8.0,29,0.00,,,0.00,571.00,VWS V14.00,2013-04-03 20:21:00,
2013-04-03 16:26:00,39.3,10.5,29.98,North,5,13.0,13.0,30,0.00,,,0.00,568.00,VWS V14.00,2013-04-03 20:26:00,
2013-04-03 16:31:00,39.3,11.2,29.98,NNW,336,10.0,10.0,31,0.00,,,0.00,503.00,VWS V14.00,2013-04-03 20:31:00,
2013-04-03 16:36:00,39.5,11.4,29.98,WNW,284,3.0,12.0,31,0.00,,,0.00,369.00,VWS V14.00,2013-04-03 20:36:00,
2013-04-03 16:41:00,39.5,12.1,29.99,NNW,342,9.0,11.0,32,0.00,,,0.00,290.00,VWS V14.00,2013-04-03 20:41:00,
2013-04-03 16:46:00,39.2,11.1,29.99,WSW,258,7.0,8.0,31,0.00,,,0.00,329.00,VWS V14.00,2013-04-03 20:46:00,
2013-04-03 16:51:00,39.1,12.4,29.99,North,355,10.0,14.0,33,0.00,,,0.00,253.00,VWS V14.00,2013-04-03 20:51:00,
2013-04-03 16:56:00,39.1,13.1,29.99,NNW,346,9.0,12.0,34,0.00,,,0.00,251.00,VWS V14.00,2013-04-03 20:56:00,
2013-04-03 17:02:00,38.9,12.3,30.00,NW,318,15.0,15.0,33,0.00,,,0.00,276.00,VWS V14.00,2013-04-03 21:02:00,
2013-04-03 17:07:00,38.5,12.6,30.00,NNW,346,9.0,10.0,34,0.00,,,0.00,237.00,VWS V14.00,2013-04-03 21:07:00,
2013-04-03 17:12:00,38.4,12.5,30.00,West,278,7.0,9.0,34,0.00,,,0.00,241.00,VWS V14.00,2013-04-03 21:12:00,
2013-04-03 17:17:00,38.4,13.1,30.00,NNW,340,9.0,10.0,35,0.00,,,0.00,185.00,VWS V14.00,2013-04-03 21:17:00,
2013-04-03 17:22:00,38.2,13.0,30.01,NW,308,6.0,15.0,35,0.00,,,0.00,214.00,VWS V14.00,2013-04-03 21:22:00,
2013-04-03 17:27:00,37.7,12.5,30.01,NW,319,9.0,15.0,35,0.00,,,0.00,134.00,VWS V14.00,2013-04-03 21:27:00,
2013-04-03 17:32:00,37.1,12.6,30.01,NNW,346,6.0,15.0,36,0.00,,,0.00,114.00,VWS V14.00,2013-04-03 21:32:00,
2013-04-03 17:37:00,36.4,12.6,30.02,NNW,336,12.0,16.0,37,0.00,,,0.00,90.00,VWS V14.00,2013-04-03 21:37:00,
2013-04-03 17:42:00,36.0,12.9,30.02,NW,320,6.0,17.0,38,0.00,,,0.00,102.00,VWS V14.00,2013-04-03 21:42:00,
2013-04-03 17:47:00,35.7,13.2,30.02,NNW,334,7.0,12.0,39,0.00,,,0.00,102.00,VWS V14.00,2013-04-03 21:47:00,
2013-04-03 17:52:00,35.6,13.1,30.03,NNW,342,7.0,13.0,39,0.00,,,0.00,102.00,VWS V14.00,2013-04-03 21:52:00,
2013-04-03 17:57:00,35.6,13.1,30.03,NW,320,1.0,7.0,39,0.00,,,0.00,114.00,VWS V14.00,2013-04-03 21:57:00,
2013-04-03 18:02:00,35.6,13.7,30.03,NW,319,5.0,11.0,40,0.00,,,0.00,109.00,VWS V14.00,2013-04-03 22:02:00,
2013-04-03 18:07:00,35.6,13.1,30.03,NW,321,7.0,10.0,39,0.00,,,0.00,162.00,VWS V14.00,2013-04-03 22:07:00,
2013-04-03 18:12:00,35.5,14.1,30.03,NNE,26,8.0,12.0,41,0.00,,,0.00,237.00,VWS V14.00,2013-04-03 22:12:00,
2013-04-03 18:17:00,35.7,13.8,30.03,NNW,332,9.0,17.0,40,0.00,,,0.00,204.00,VWS V14.00,2013-04-03 22:17:00,
2013-04-03 18:22:00,35.7,13.8,30.04,WNW,284,5.0,16.0,40,0.00,,,0.00,183.00,VWS V14.00,2013-04-03 22:22:00,
2013-04-03 18:27:00,35.6,13.7,30.04,NW,319,9.0,16.0,40,0.00,,,0.00,171.00,VWS V14.00,2013-04-03 22:27:00,
2013-04-03 18:32:00,35.4,13.5,30.04,West,279,2.0,9.0,40,0.00,,,0.00,70.00,VWS V14.00,2013-04-03 22:32:00,
2013-04-03 18:37:00,35.2,13.9,30.04,NW,313,7.0,16.0,41,0.00,,,0.00,60.00,VWS V14.00,2013-04-03 22:37:00,
2013-04-03 18:42:00,35.1,13.8,30.05,West,262,3.0,8.0,41,0.00,,,0.00,65.00,VWS V14.00,2013-04-03 22:42:00,
2013-04-03 18:47:00,35.0,14.2,30.05,West,278,3.0,12.0,42,0.00,,,0.00,49.00,VWS V14.00,2013-04-03 22:47:00,
2013-04-03 18:52:00,34.8,14.1,30.06,WNW,303,1.0,11.0,42,0.00,,,0.00,44.00,VWS V14.00,2013-04-03 22:52:00,
2013-04-03 18:57:00,34.6,13.9,30.06,NNW,329,11.0,16.0,42,0.00,,,0.00,33.00,VWS V14.00,2013-04-03 22:57:00,
2013-04-03 19:02:00,34.4,13.1,30.06,WNW,293,3.0,3.0,41,0.00,,,0.00,32.00,VWS V14.00,2013-04-03 23:02:00,
2013-04-03 19:07:00,34.2,14.1,30.06,NNW,333,1.0,6.0,43,0.00,,,0.00,30.00,VWS V14.00,2013-04-03 23:07:00,
2013-04-03 19:12:00,34.0,13.9,30.06,NW,324,5.0,8.0,43,0.00,,,0.00,21.00,VWS V14.00,2013-04-03 23:12:00,
2013-04-03 19:17:00,33.8,13.1,30.07,NW,321,7.0,13.0,42,0.00,,,0.00,14.00,VWS V14.00,2013-04-03 23:17:00,
2013-04-03 19:22:00,33.6,13.0,30.07,NW,319,1.0,12.0,42,0.00,,,0.00,9.00,VWS V14.00,2013-04-03 23:22:00,
2013-04-03 19:27:00,33.5,13.9,30.07,West,271,2.0,9.0,44,0.00,,,0.00,0.00,VWS V14.00,2013-04-03 23:27:00,
2013-04-03 19:33:00,33.3,14.3,30.08,WSW,243,4.0,14.0,45,0.00,,,0.00,0.00,VWS V14.00,2013-04-03 23:33:00,
2013-04-03 19:38:00,33.1,13.6,30.08,NW,320,0.0,5.0,44,0.00,,,0.00,0.00,VWS V14.00,2013-04-03 23:38:00,
2013-04-03 19:43:00,33.0,14.0,30.08,WNW,297,0.0,0.0,45,0.00,,,0.00,0.00,VWS V14.00,2013-04-03 23:43:00,
2013-04-03 19:48:00,32.8,13.8,30.08,WNW,297,0.0,0.0,45,0.00,,,0.00,0.00,VWS V14.00,2013-04-03 23:48:00,
2013-04-03 19:53:00,32.7,13.2,30.08,NW,318,3.0,10.0,44,0.00,,,0.00,0.00,VWS V14.00,2013-04-03 23:53:00,
2013-04-03 19:58:00,32.5,13.0,30.09,NW,313,0.0,7.0,44,0.00,,,0.00,0.00,VWS V14.00,2013-04-03 23:58:00,
2013-04-03 20:03:00,32.4,12.9,30.09,WNW,291,3.0,4.0,44,0.00,,,0.00,0.00,VWS V14.00,2013-04-04 00:03:00,
2013-04-03 20:08:00,32.4,12.9,30.10,WNW,302,0.0,3.0,44,0.00,,,0.00,0.00,VWS V14.00,2013-04-04 00:08:00,
2013-04-03 20:13:00,32.4,12.9,30.10,NW,311,9.0,9.0,44,0.00,,,0.00,0.00,VWS V14.00,2013-04-04 00:13:00,
2013-04-03 20:18:00,32.4,13.4,30.11,WSW,253,3.0,5.0,45,0.00,,,0.00,0.00,VWS V14.00,2013-04-04 00:18:00,
2013-04-03 20:23:00,32.3,13.4,30.11,WSW,254,2.0,6.0,45,0.00,,,0.00,0.00,VWS V14.00,2013-04-04 00:23:00,
2013-04-03 20:28:00,32.3,13.4,30.11,West,279,5.0,6.0,45,0.00,,,0.00,0.00,VWS V14.00,2013-04-04 00:28:00,
2013-04-03 20:33:00,32.3,12.8,30.11,NNW,335,1.0,8.0,44,0.00,,,0.00,0.00,VWS V14.00,2013-04-04 00:33:00,
2013-04-03 20:38:00,32.3,12.8,30.11,NNW,327,4.0,6.0,44,0.00,,,0.00,0.00,VWS V14.00,2013-04-04 00:38:00,
2013-04-03 20:43:00,32.4,12.9,30.12,West,277,7.0,11.0,44,0.00,,,0.00,0.00,VWS V14.00,2013-04-04 00:43:00,
2013-04-03 20:48:00,32.4,12.4,30.12,West,269,3.0,5.0,43,0.00,,,0.00,0.00,VWS V14.00,2013-04-04 00:48:00,
2013-04-03 20:53:00,32.5,12.0,30.12,WNW,301,11.0,14.0,42,0.00,,,0.00,0.00,VWS V14.00,2013-04-04 00:53:00,
2013-04-03 20:58:00,32.7,12.7,30.13,WNW,298,3.0,4.0,43,0.00,,,0.00,0.00,VWS V14.00,2013-04-04 00:58:00,
2013-04-03 21:03:00,32.8,12.8,30.13,WSW,252,2.0,9.0,43,0.00,,,0.00,0.00,VWS V14.00,2013-04-04 01:03:00,
2013-04-03 21:08:00,32.8,13.3,30.13,WSW,252,4.0,7.0,44,0.00,,,0.00,0.00,VWS V14.00,2013-04-04 01:08:00,
2013-04-03 21:13:00,32.7,12.7,30.13,WSW,249,2.0,8.0,43,0.00,,,0.00,0.00,VWS V14.00,2013-04-04 01:13:00,
2013-04-03 21:18:00,32.7,12.7,30.13,WSW,256,11.0,11.0,43,0.00,,,0.00,0.00,VWS V14.00,2013-04-04 01:18:00,
2013-04-03 21:23:00,32.6,13.1,30.13,NW,304,1.0,6.0,44,0.00,,,0.00,0.00,VWS V14.00,2013-04-04 01:23:00,
2013-04-03 21:28:00,32.6,13.1,30.13,WNW,284,3.0,5.0,44,0.00,,,0.00,0.00,VWS V14.00,2013-04-04 01:28:00,
2013-04-03 21:33:00,32.5,13.0,30.13,West,276,6.0,9.0,44,0.00,,,0.00,0.00,VWS V14.00,2013-04-04 01:33:00,
2013-04-03 21:38:00,32.4,12.9,30.13,West,270,8.0,8.0,44,0.00,,,0.00,0.00,VWS V14.00,2013-04-04 01:38:00,
2013-04-03 21:43:00,32.3,13.4,30.13,WNW,292,6.0,9.0,45,0.00,,,0.00,0.00,VWS V14.00,2013-04-04 01:43:00,
2013-04-03 21:48:00,32.1,13.2,30.13,West,265,7.0,9.0,45,0.00,,,0.00,0.00,VWS V14.00,2013-04-04 01:48:00,
2013-04-03 21:53:00,32.0,13.1,30.14,WNW,291,2.0,6.0,45,0.00,,,0.00,0.00,VWS V14.00,2013-04-04 01:53:00,
2013-04-03 21:58:00,31.8,13.4,30.14,West,263,1.0,4.0,46,0.00,,,0.00,0.00,VWS V14.00,2013-04-04 01:58:00,
2013-04-03 22:03:00,31.6,13.7,30.14,WNW,285,2.0,10.0,47,0.00,,,0.00,0.00,VWS V14.00,2013-04-04 02:03:00,
2013-04-03 22:08:00,31.5,13.1,30.15,NW,317,0.0,5.0,46,0.00,,,0.00,0.00,VWS V14.00,2013-04-04 02:08:00,
2013-04-03 22:13:00,31.4,13.5,30.14,SW,221,1.0,5.0,47,0.00,,,0.00,0.00,VWS V14.00,2013-04-04 02:13:00,
2013-04-03 22:18:00,31.4,14.0,30.14,SW,221,2.0,2.0,48,0.00,,,0.00,0.00,VWS V14.00,2013-04-04 02:18:00,
2013-04-03 22:23:00,31.2,13.8,30.14,SW,221,0.0,0.0,48,0.00,,,0.00,0.00,VWS V14.00,2013-04-04 02:23:00,
2013-04-03 22:29:00,31.1,13.7,30.14,SSW,211,3.0,3.0,48,0.00,,,0.00,0.00,VWS V14.00,2013-04-04 02:29:00,
2013-04-03 22:34:00,30.8,14.4,30.15,NNW,336,7.0,11.0,50,0.00,,,0.00,0.00,VWS V14.00,2013-04-04 02:34:00,
2013-04-03 22:39:00,31.0,14.6,30.15,WNW,294,2.0,8.0,50,0.00,,,0.00,0.00,VWS V14.00,2013-04-04 02:39:00,
2013-04-03 22:44:00,31.2,14.7,30.15,NE,51,4.0,5.0,50,0.00,,,0.00,0.00,VWS V14.00,2013-04-04 02:44:00,
2013-04-03 22:49:00,31.5,15.0,30.15,East,82,1.0,11.0,50,0.00,,,0.00,0.00,VWS V14.00,2013-04-04 02:49:00,
2013-04-03 22:54:00,31.6,15.1,30.15,NW,316,5.0,7.0,50,0.00,,,0.00,0.00,VWS V14.00,2013-04-04 02:54:00,
2013-04-03 22:59:00,31.6,15.6,30.16,NE,38,9.0,11.0,51,0.00,,,0.00,0.00,VWS V14.00,2013-04-04 02:59:00,
2013-04-03 23:04:00,31.6,15.6,30.16,West,280,0.0,4.0,51,0.00,,,0.00,0.00,VWS V14.00,2013-04-04 03:04:00,
2013-04-03 23:09:00,31.6,15.6,30.16,NW,322,1.0,9.0,51,0.00,,,0.00,0.00,VWS V14.00,2013-04-04 03:09:00,
2013-04-03 23:14:00,31.5,15.9,30.16,NW,316,6.0,10.0,52,0.00,,,0.00,0.00,VWS V14.00,2013-04-04 03:14:00,
2013-04-03 23:19:00,31.5,15.9,30.16,NNW,344,11.0,15.0,52,0.00,,,0.00,0.00,VWS V14.00,2013-04-04 03:19:00,
2013-04-03 23:24:00,31.5,15.5,30.16,NNW,331,4.0,13.0,51,0.00,,,0.00,0.00,VWS V14.00,2013-04-04 03:24:00,
2013-04-03 23:29:00,31.6,15.6,30.17,NW,315,9.0,15.0,51,0.00,,,0.00,0.00,VWS V14.00,2013-04-04 03:29:00,
2013-04-03 23:34:00,31.5,15.5,30.17,NNW,328,7.0,10.0,51,0.00,,,0.00,0.00,VWS V14.00,2013-04-04 03:34:00,
2013-04-03 23:39:00,31.5,15.5,30.17,NNW,336,1.0,8.0,51,0.00,,,0.00,0.00,VWS V14.00,2013-04-04 03:39:00,
2013-04-03 23:44:00,31.4,14.9,30.17,North,350,4.0,11.0,50,0.00,,,0.00,0.00,VWS V14.00,2013-04-04 03:44:00,
2013-04-03 23:49:00,31.3,14.8,30.17,NW,313,2.0,13.0,50,0.00,,,0.00,0.00,VWS V14.00,2013-04-04 03:49:00,
2013-04-03 23:55:00,31.3,14.8,30.16,NW,322,4.0,18.0,50,0.00,,,0.00,0.00,VWS V14.00,2013-04-04 03:55:00,